Location: Monroe
(41.9160°N, 83.3980°W)
Time: 21:28:47
(UTC-04:00)

ISS - Visible Passes

Search period start: 28 March 2017 00:00
Search period end: 07 April 2017 00:00
Orbit: 399 x 409 km, 51.6° (Epoch: 29 March)

Date Brightness Start Highest point End Pass type
(mag) Time Alt. Az. Time Alt. Az. Time Alt. Az.
28 Mar -4.0 21:07:33 10° SW 21:10:47 78° SE 21:12:45 22° ENE visible
28 Mar -0.5 22:44:55 10° WNW 22:45:26 13° WNW 22:45:26 13° WNW visible
29 Mar -2.1 21:52:04 10° W 21:55:01 30° NNW 21:55:50 26° N visible
30 Mar -2.9 20:59:22 10° WSW 21:02:31 47° NNW 21:05:42 10° NE visible
30 Mar -0.8 22:37:21 10° NW 22:38:42 15° NNW 22:38:42 15° NNW visible
31 Mar -1.4 21:44:24 10° WNW 21:46:56 20° NNW 21:48:42 14° NNE visible
01 Apr -1.8 20:51:30 10° W 20:54:20 27° NNW 20:57:11 10° NE visible
01 Apr -0.9 22:29:37 10° NW 22:31:14 15° N 22:31:14 15° N visible
02 Apr -1.2 21:36:45 10° NW 21:38:54 16° N 21:41:00 10° NNE visible
03 Apr -1.4 20:43:47 10° WNW 20:46:12 19° NNW 20:48:37 10° NNE visible
03 Apr -1.1 22:21:31 10° NNW 22:23:21 15° N 22:23:21 15° N visible
04 Apr -1.2 21:28:53 10° NW 21:30:51 15° N 21:32:50 10° NE visible
04 Apr -0.3 23:05:24 10° NW 23:05:38 11° NW 23:05:38 11° NW visible
05 Apr -1.2 20:36:02 10° NW 20:38:06 15° N 20:40:10 10° NNE visible
05 Apr -1.5 22:13:03 10° NNW 22:15:14 19° N 22:15:14 19° N visible
06 Apr -1.4 21:20:36 10° NNW 21:22:45 16° N 21:24:49 10° NE visible
06 Apr -0.7 22:56:44 10° NW 22:57:27 15° NW 22:57:27 15° NW visible
